Regional Weather Roundup
Issued by NWS

Home | Current Version | Previous Version | Graphics & Text | Print | Product List | Glossary On
Versions: 1 2 3 4 5 6 7 8 9 10 11 12 13 14 15 16 17 18 19 20 21 22 23 24 25 26 27
000
ASUS45 KSLC 250810
RWRUT

UTAH REGIONAL WEATHER ROUNDUP
NATIONAL WEATHER SERVICE SALT LAKE CITY UT
200 AM MDT SAT MAR 25 2017

UTZ001>011-023>025-250900-

NORTHERN UTAH

CITY           SKY/WX    TMP DP  RH WIND       PRES   REMARKS
BRIGHAM CITY     N/A     48  37  64 NW5       30.04R
HILL AFB       CLOUDY    48  32  53 VRB5      30.03R
LOGAN          CLOUDY    47  41  80 N7        30.05R
OGDEN          CLOUDY    47  37  68 NW6       30.02R
SALT LAKE CITY CLOUDY    55  32  41 SE15      30.00S
WENDOVER       CLOUDY    53  35  50 NW3       30.03S
HEBER CITY     CLOUDY    37  30  75 CALM      30.05S

$$

UTZ011>015-024>027-250900-

CENTRAL/NORTHEAST UTAH

CITY           SKY/WX    TMP DP  RH WIND       PRES   REMARKS
PROVO AIRPORT  CLOUDY    47  35  63 E6        30.06F
MOAB/CANYONLAN CLEAR     43  24  47 CALM      30.08S
DELTA          CLOUDY    46  30  53 S15       30.05S
PRICE          PTCLDY    38  32  79 NE5       30.11F WCI  34
ROOSEVELT      CLOUDY    37  34  87 W5        30.12S WCI  34
VERNAL         CLEAR     38  31  76 CALM      30.09F

$$

UTZ013>016-019>022-027-250900-

SOUTHERN UTAH

CITY           SKY/WX    TMP DP  RH WIND       PRES   REMARKS
BRYCE CANYON   PTCLDY    29  25  85 W6        30.19F WCI  23
CEDAR CITY     MOCLDY    44  27  51 CALM      30.09F
MILFORD        MOCLDY    44  26  49 S12       30.08F
ST GEORGE      CLOUDY    55  33  43 SW3       30.07S
HANKSVILLE     PTCLDY    41  32  70 NW5       30.09F
BLANDING       CLEAR     34  20  57 S3        30.22S

$$

REGIONAL REPORTS     COLORADO/ARIZONA

CITY           SKY/WX    TMP DP  RH WIND       PRES   REMARKS
CRAIG, CO      CLOUDY    29  22  75 CALM      30.15F
GRAND JUNCTION CLEAR     45  29  53 E15       30.11F
RIFLE, CO      CLOUDY    36  26  67 S3        30.16F
MONTROSE, CO   CLOUDY    39  28  64 SE8       30.19R WCI  33
CORTEZ, CO     CLOUDY    33  28  81 NE3       30.18S
COLORADO CITY    N/A     37  34  87 SE5       30.16S WCI  34
PAGE, AZ       PTCLDY    49  31  49 CALM      30.10F
GRAND CANYON   CLEAR     30  28  92 CALM      30.22F
KINGMAN, AZ    PTCLDY    50  21  32 SE13      30.10F
FLAGSTAFF, AZ  CLEAR     30  28  92 CALM      30.23F

$$

REGIONAL REPORTS    NEVADA/IDAHO/WYOMING

CITY           SKY/WX    TMP DP  RH WIND       PRES   REMARKS
LAS VEGAS, NV  CLOUDY    67  22  18 SE8       29.99F
ELY, NY        CLOUDY    46  26  45 W14       30.07S
ELKO, NV       CLOUDY    42  39  89 S5        30.08S
POCATELLO, ID  LGT RAIN  43  42  97 SW10      30.07S
BURLEY, ID     LGT RAIN  42  39  89 NW12      30.06F
FORT BRIDGER,  CLOUDY    39  32  76 CALM      30.11F
EVANSTON, WY   CLOUDY    38  21  50 SW12      30.07F WCI  30
ROCK SPRINGS,  CLOUDY    42  30  62 CALM      30.06F
KEMMERER, WY     N/A     36  27  69 CALM      30.08F

$$




USA.gov is the U.S. government's official web portal to all federal, state and local government web resources and services.